TimeCST,TemperatureF,Dew PointF,Humidity,Sea Level PressureIn,VisibilityMPH,Wind Direction,Wind SpeedMPH,Gust SpeedMPH,PrecipitationIn,Events,Conditions,WindDirDegrees,DateUTC
12:58 AM,50.5,35.4,56,30.27,10.0,NNE,11.5,21.9,N/A,,Clear,20,2013-11-08 06:58:00
1:58 AM,49.3,36.3,61,30.26,10.0,NNE,15.0,21.9,N/A,,Clear,30,2013-11-08 07:58:00
2:58 AM,47.5,36.0,64,30.27,10.0,NNE,13.8,-,N/A,,Clear,20,2013-11-08 08:58:00
3:58 AM,46.9,35.4,64,30.28,10.0,NNE,15.0,19.6,N/A,,Clear,30,2013-11-08 09:58:00
4:58 AM,45.9,35.2,66,30.30,10.0,NNE,13.8,-,N/A,,Clear,30,2013-11-08 10:58:00
5:58 AM,44.8,35.4,70,30.30,10.0,NNE,11.5,-,N/A,,Clear,30,2013-11-08 11:58:00
6:58 AM,45.3,34.7,66,30.32,10.0,NNE,13.8,-,N/A,,Clear,30,2013-11-08 12:58:00
7:58 AM,48.9,34.0,56,30.33,10.0,NE,15.0,-,N/A,,Clear,40,2013-11-08 13:58:00
8:58 AM,53.4,34.0,48,30.33,10.0,NE,13.8,-,N/A,,Clear,40,2013-11-08 14:58:00
9:58 AM,58.6,33.1,38,30.32,10.0,NE,18.4,-,N/A,,Clear,40,2013-11-08 15:58:00
10:55 AM,60.8,32.0,34,30.30,10.0,NE,16.1,-,N/A,,Clear,40,2013-11-08 16:55:00
11:58 AM,63.9,32.0,30,30.27,10.0,NE,13.8,-,N/A,,Clear,40,2013-11-08 17:58:00
12:58 PM,64.4,33.6,32,30.23,10.0,NNE,11.5,-,N/A,,Clear,20,2013-11-08 18:58:00
1:58 PM,64.9,33.4,31,30.21,10.0,NNE,12.7,-,N/A,,Clear,20,2013-11-08 19:58:00
2:58 PM,65.5,34.3,31,30.20,10.0,NNE,10.4,-,N/A,,Clear,20,2013-11-08 20:58:00
3:58 PM,64.2,36.1,35,30.20,10.0,NNE,12.7,-,N/A,,Clear,20,2013-11-08 21:58:00
4:58 PM,60.8,37.0,41,30.21,10.0,NNE,9.2,-,N/A,,Clear,20,2013-11-08 22:58:00
5:58 PM,57.0,38.7,50,30.22,10.0,NNE,6.9,-,N/A,,Clear,20,2013-11-08 23:58:00
6:58 PM,55.2,39.9,56,30.23,10.0,NNE,5.8,-,N/A,,Clear,20,2013-11-09 00:58:00
7:58 PM,53.2,39.9,61,30.24,10.0,NNE,4.6,-,N/A,,Clear,20,2013-11-09 01:58:00
8:58 PM,51.1,40.5,67,30.24,10.0,NNE,5.8,-,N/A,,Clear,30,2013-11-09 02:58:00
9:58 PM,50.2,39.9,68,30.25,10.0,ENE,5.8,-,N/A,,Clear,60,2013-11-09 03:58:00
10:58 PM,48.7,39.0,69,30.22,10.0,NE,5.8,-,N/A,,Clear,50,2013-11-09 04:58:00
11:58 PM,48.9,38.3,67,30.21,10.0,ENE,8.1,-,N/A,,Clear,60,2013-11-09 05:58:00